sat.trackr.live / text

‹ back to catalog

STARLINK-34081

NORAD 64044 · 2025-102Y

PAYLOAD ACTIVE UNKNOWN

§ Identity

Operator
Country
US
Launch date
2025-05-16
Launch site
AFWTR
Launch vehicle
Mass (kg)
RCS (m²)

Purposes: comms

External: N2YO · Heavens-Above · Gunter

§ Orbital elements

Epoch: 2026-09-20T14:00:57.122208Z

Period
94.13 min
Inclination
70.0047°
Eccentricity
0.0002569
Mean motion
15.29778248 rev/d
Perigee alt
474.7 km
Apogee alt
478.2 km
Semi-major
6,854.6 km
B*
3.9958e-3
RAAN
340.7366°
Arg perigee
273.7996°
Mean anomaly
86.2885°
Rev number
7,514

§ Raw data

STARLINK-340811 64044U 25102Y   26263.58399447  .00117258  00000+0  39958-2 0  99952 64044  70.0047 340.7366 0002569 273.7996  86.2885 15.29778248 75149

JSON: /api/v1/satellites/64044 · /tle

For live sub-satellite position, see the globe view (requires WebGL).

§ Visibility from observer

Set your observer location to see the next 7 days of passes ≥ 10°. The values pass through the URL so the page stays shareable.

No JS? Fill the form by hand. The geolocation button needs JavaScript.